When you browse on this site, cookies collect data to enhance your experience and personalize the content and advertising you see.
Visit our Privacy Policy to learn more. By continuing to use the site, you agree to this use of cookies and data.

Hourly Weather Bafatá

Today, 10 August, Monday

Time Temperature Precipitation Wind Pressure Humidity
00:00 +26°C° 0 mm 2 mps 758 mmHg 97%
01:00 +26°C° 0 mm 1 mps 758 mmHg 97%
02:00 +25°C° 0 mm 1 mps 757 mmHg 97%
03:00 +25°C° 0.1 mm 1 mps 757 mmHg 97%
04:00 +26°C° 0.1 mm 1 mps 757 mmHg 97%
05:00 +26°C° 0.1 mm 1 mps 757 mmHg 97%
06:00 +26°C° 0.2 mm 2 mps 757 mmHg 96%
07:00 +26°C° 0.2 mm 2 mps 758 mmHg 96%
08:00 +26°C° 0.2 mm 2 mps 758 mmHg 96%
09:00 +26°C° 1.1 mm 2 mps 758 mmHg 95%
10:00 +26°C° 1.1 mm 3 mps 758 mmHg 94%
11:00 +26°C° 1.1 mm 3 mps 758 mmHg 94%
12:00 +27°C° 1.2 mm 4 mps 757 mmHg 90%
13:00 +28°C° 1.2 mm 4 mps 757 mmHg 86%
14:00 +30°C° 1.2 mm 5 mps 756 mmHg 82%
15:00 +29°C° 1.2 mm 4 mps 756 mmHg 85%
16:00 +28°C° 1.2 mm 4 mps 756 mmHg 89%
17:00 +27°C° 1.2 mm 3 mps 756 mmHg 92%
18:00 +27°C° 1 mm 3 mps 756 mmHg 93%
19:00 +26°C° 1 mm 3 mps 757 mmHg 95%
20:00 +26°C° 1 mm 2 mps 757 mmHg 96%
21:00 +26°C° 0.1 mm 2 mps 757 mmHg 97%
22:00 +25°C° 0.1 mm 2 mps 757 mmHg 97%
23:00 +25°C° 0.1 mm 1 mps 757 mmHg 98%

Tomorrow, 11 August, Tuesday

Time Temperature Precipitation Wind Pressure Humidity
00:00 +25°C° 0 mm 1 mps 757 mmHg 98%
01:00 +25°C° 0 mm 1 mps 756 mmHg 98%
02:00 +25°C° 0 mm 1 mps 756 mmHg 98%
03:00 +25°C° 0.1 mm 1 mps 756 mmHg 98%
04:00 +23°C° 0.1 mm 0 mps 756 mmHg 98%
05:00 +23°C° 0.1 mm 0 mps 756 mmHg 97%
06:00 +24°C° 0.2 mm 0 mps 757 mmHg 97%
07:00 +24°C° 0.2 mm 0 mps 757 mmHg 96%
08:00 +27°C° 0.2 mm 1 mps 757 mmHg 95%
09:00 +27°C° 0.3 mm 0 mps 757 mmHg 87%
10:00 +29°C° 0.3 mm 0 mps 757 mmHg 80%
11:00 +31°C° 0.3 mm 0 mps 756 mmHg 73%
12:00 +33°C° 0.2 mm 1 mps 756 mmHg 73%
13:00 +32°C° 0.2 mm 1 mps 755 mmHg 74%
14:00 +32°C° 0.2 mm 2 mps 755 mmHg 74%
15:00 +31°C° 1.9 mm 3 mps 755 mmHg 79%
16:00 +30°C° 1.9 mm 3 mps 755 mmHg 85%
17:00 +29°C° 1.9 mm 3 mps 754 mmHg 90%
18:00 +28°C° 0 mm 3 mps 755 mmHg 91%
19:00 +27°C° 0 mm 3 mps 756 mmHg 93%
20:00 +26°C° 0 mm 3 mps 757 mmHg 94%
21:00 +25°C° 0 mm 3 mps 757 mmHg 95%
22:00 +25°C° 0 mm 2 mps 757 mmHg 96%
23:00 +25°C° 0 mm 1 mps 757 mmHg 97%

Day after tomorrow, 12 August, Wednesday

Time Temperature Precipitation Wind Pressure Humidity
00:00 +25°C° 0 mm 1 mps 757 mmHg 97%
01:00 +25°C° 0 mm 1 mps 757 mmHg 97%
02:00 +25°C° 0 mm 1 mps 756 mmHg 98%
03:00 +25°C° 0.1 mm 1 mps 756 mmHg 97%
04:00 +25°C° 0.1 mm 2 mps 756 mmHg 97%
05:00 +25°C° 0.1 mm 2 mps 756 mmHg 97%
06:00 +26°C° 0 mm 2 mps 756 mmHg 95%
07:00 +26°C° 0 mm 2 mps 757 mmHg 94%
08:00 +27°C° 0 mm 2 mps 757 mmHg 92%
09:00 +28°C° 0.2 mm 2 mps 757 mmHg 88%
10:00 +29°C° 0.2 mm 2 mps 757 mmHg 85%
11:00 +29°C° 0.2 mm 1 mps 757 mmHg 82%
12:00 +30°C° 0.5 mm 2 mps 756 mmHg 80%
13:00 +31°C° 0.5 mm 2 mps 756 mmHg 77%
14:00 +31°C° 0.5 mm 2 mps 755 mmHg 75%
15:00 +30°C° 2.2 mm 2 mps 755 mmHg 81%
16:00 +29°C° 2.2 mm 2 mps 755 mmHg 86%
17:00 +28°C° 2.2 mm 2 mps 755 mmHg 92%
18:00 +27°C° 0.4 mm 2 mps 756 mmHg 93%
19:00 +27°C° 0.4 mm 2 mps 756 mmHg 95%
20:00 +26°C° 0.4 mm 2 mps 757 mmHg 96%
21:00 +26°C° 0 mm 2 mps 757 mmHg 96%
22:00 +26°C° 0 mm 2 mps 757 mmHg 96%
23:00 +26°C° 0 mm 2 mps 758 mmHg 97%

13 August, Thursday

Time Temperature Precipitation Wind Pressure Humidity
00:00 +25°C° 0 mm 2 mps 757 mmHg 97%
01:00 +25°C° 0 mm 1 mps 757 mmHg 97%
02:00 +25°C° 0 mm 1 mps 756 mmHg 97%
03:00 +25°C° 0.4 mm 1 mps 756 mmHg 97%
04:00 +25°C° 0.4 mm 1 mps 757 mmHg 97%
05:00 +25°C° 0.4 mm 1 mps 757 mmHg 97%
06:00 +26°C° 0.1 mm 2 mps 757 mmHg 95%
07:00 +27°C° 0.1 mm 2 mps 757 mmHg 93%
08:00 +27°C° 0.1 mm 2 mps 758 mmHg 91%
09:00 +28°C° 1.4 mm 3 mps 758 mmHg 89%
10:00 +29°C° 1.4 mm 3 mps 758 mmHg 87%
11:00 +30°C° 1.4 mm 3 mps 758 mmHg 85%
12:00 +30°C° 1.8 mm 3 mps 757 mmHg 85%
13:00 +30°C° 1.8 mm 3 mps 757 mmHg 84%
14:00 +30°C° 1.8 mm 3 mps 756 mmHg 84%
15:00 +30°C° 2.3 mm 3 mps 756 mmHg 86%
16:00 +29°C° 2.3 mm 3 mps 756 mmHg 89%
17:00 +28°C° 2.3 mm 3 mps 756 mmHg 91%
18:00 +27°C° 0.5 mm 2 mps 757 mmHg 93%
19:00 +27°C° 0.5 mm 2 mps 758 mmHg 95%
20:00 +26°C° 0.5 mm 2 mps 758 mmHg 96%
21:00 +26°C° 0 mm 1 mps 758 mmHg 97%
22:00 +26°C° 0 mm 1 mps 759 mmHg 97%
23:00 +26°C° 0 mm 1 mps 759 mmHg 97%

14 August, Friday

Time Temperature Precipitation Wind Pressure Humidity
00:00 +25°C° 0 mm 1 mps 758 mmHg 97%
01:00 +25°C° 0 mm 1 mps 758 mmHg 98%
02:00 +25°C° 0 mm 1 mps 757 mmHg 98%
03:00 +25°C° 0 mm 1 mps 757 mmHg 98%
04:00 +25°C° 0 mm 1 mps 757 mmHg 98%
05:00 +25°C° 0 mm 1 mps 757 mmHg 98%
06:00 +26°C° 0 mm 1 mps 758 mmHg 96%
07:00 +26°C° 0 mm 1 mps 758 mmHg 94%
08:00 +27°C° 0 mm 1 mps 758 mmHg 92%
09:00 +28°C° 0.8 mm 1 mps 758 mmHg 88%
10:00 +29°C° 0.8 mm 2 mps 758 mmHg 85%
11:00 +30°C° 0.8 mm 2 mps 758 mmHg 82%
12:00 +30°C° 2.9 mm 2 mps 757 mmHg 83%
13:00 +30°C° 2.9 mm 2 mps 756 mmHg 84%
14:00 +30°C° 2.9 mm 2 mps 756 mmHg 85%
15:00 +29°C° 3.2 mm 2 mps 756 mmHg 88%
16:00 +28°C° 3.2 mm 2 mps 756 mmHg 91%
17:00 +27°C° 3.2 mm 3 mps 756 mmHg 94%
18:00 +27°C° 2.1 mm 3 mps 756 mmHg 95%
19:00 +26°C° 2.1 mm 3 mps 757 mmHg 96%
20:00 +26°C° 2.1 mm 2 mps 757 mmHg 97%
21:00 +26°C° 0.3 mm 2 mps 757 mmHg 98%
22:00 +26°C° 0.3 mm 2 mps 757 mmHg 98%
23:00 +25°C° 0.3 mm 1 mps 758 mmHg 98%

15 August, Saturday

Time Temperature Precipitation Wind Pressure Humidity
00:00 +25°C° 0 mm 1 mps 757 mmHg 98%
01:00 +25°C° 0 mm 1 mps 757 mmHg 98%
02:00 +25°C° 0 mm 2 mps 756 mmHg 98%
03:00 +25°C° 0 mm 1 mps 756 mmHg 98%
04:00 +25°C° 0 mm 1 mps 756 mmHg 98%
05:00 +25°C° 0 mm 1 mps 756 mmHg 98%
06:00 +26°C° 0 mm 1 mps 756 mmHg 96%
07:00 +27°C° 0 mm 1 mps 757 mmHg 93%
08:00 +28°C° 0 mm 1 mps 757 mmHg 91%
09:00 +29°C° 0.1 mm 1 mps 757 mmHg 85%
10:00 +31°C° 0.1 mm 1 mps 757 mmHg 80%
11:00 +32°C° 0.1 mm 1 mps 757 mmHg 75%
12:00 +32°C° 2.3 mm 1 mps 756 mmHg 77%
13:00 +32°C° 2.3 mm 1 mps 755 mmHg 79%
14:00 +31°C° 2.3 mm 1 mps 754 mmHg 82%
15:00 +31°C° 0.4 mm 1 mps 754 mmHg 84%
16:00 +30°C° 0.4 mm 2 mps 754 mmHg 85%
17:00 +30°C° 0.4 mm 2 mps 754 mmHg 87%
18:00 +29°C° 0.1 mm 2 mps 754 mmHg 89%
19:00 +28°C° 0.1 mm 2 mps 755 mmHg 92%
20:00 +27°C° 0.1 mm 2 mps 755 mmHg 94%
21:00 +27°C° 0 mm 2 mps 756 mmHg 95%
22:00 +26°C° 0 mm 2 mps 756 mmHg 96%
23:00 +26°C° 0 mm 1 mps 756 mmHg 97%
Show more